Tracking 19832 objects as of 25-Aug-2019
HD Live streaming from Space Station
objects crossing your sky now

COSMOS 2251 DEB

Track COSMOS 2251 DEB now!
10-day predictions


NORAD ID: 33784
Int'l Code: 1993-036Z
Perigee: 644.0 km
Apogee: 720.6 km
Inclination: 74.2 °
Period: 98.3 minutes
Semi major axis: 7053 km
RCS: 0.1566 m2 (medium)
Launch date: June 16, 1993
Source: Commonwealth of Independent States (former USSR) (CIS)
Launch site: PLESETSK MISSILE AND SPACE COMPLEX (PKMTR)

Note: This is SATELLITE DEBRIS
aabbcc
Your satellite tracking list
Your tracking list is empty




NASA's NSSDC Master Catalog

Two Line Element Set (TLE):
1 33784U 93036Z   19236.76435990  .00000435  00000-0  83993-4 0  9998
2 33784  74.2031 334.5275 0054288 148.4633  11.1170 14.65584930560398
Source of the keplerian elements: AFSPC